Location: East Horndon
(51.5667°N, 0.3500°E)
Time: 11:20:31
(UTC+00:00)

NOAA 12 - Pass Details

Date: 08 November 2025
Orbit: 793 x 812 km, 98.6° (Epoch: 10 December)

Event Time Altitude Azimuth Distance (km) Brightness Sun altitude
Rises 05:37:00 0° 13° (NNE) 3,347 7.4 -13.8°
Reaches altitude 10° 05:39:21 10° 11° (NNE) 2,412 6.6 -13.4°
Maximum altitude 05:44:39 70° 289° (WNW) 869 4.1 -12.6°
Drops below altitude 10° 05:49:55 10° 207° (SSW) 2,396 6.4 -11.8°
Sets 05:52:16 0° 205° (SSW) 3,322 7.2 -11.5°
